Airfield :
LOGIN :

Register | Disclaimer

   EN    FR    IT 

 










Legend :    VFR   Marginal VFR   IFR   Intensive IFR   Very Intensive IFR
Visi :
Ceiling :
>= 8 km
>= 3000ft
5 to 8 km
1000 to 3000 ft
1500m to 5 km
500 to 1000 ft
800 to 1500m
200 to 500 ft
< 800m
< 200 ft
Symbols :   Thunderstorms  Fog  Heavy snow  Heavy precipitations  Wind > 20 kt
SIGMETs :     Misc.  Thunderstorms  Icing  Turbulence  Mountain Waves  Volcanic Ashes







- Airport Elevation : 76 ft
- IATA code : KID


ESMK - Kristianstad

CURRENT METAR :
  • 212250Z AUTO 00000KT 0050 R01/0325U R19/0450N // VV001 06/06 Q1018

EXPIRED METARs :
  • 212220Z AUTO 00000KT 0100 R01/0400D R19/P2000N // NCD 08/08 Q1018
  • 212150Z AUTO 30003KT 0150 R01/0550N R19/P2000N // NCD 10/10 Q1018
  • 212120Z AUTO 28003KT 0300 R01/P2000D R19/P2000N // NCD 10/10 Q1018
  • 212050Z AUTO VRB02KT 1600 // NCD 10/10 Q1018
  • 212020Z AUTO 27003KT 2800 // NCD 11/11 Q1018

Expired Forecast.
No reported NOTAMs for that airfield.



MET'MAP, your aeronautical weather chart ! - Copyright ORBIFLY December 2007 - Disclaimer

ORBIFLY MET'MAP TEAM :

Programming & Development : Alexandra Zaïnal
Concept & Development : Baudouin d'Aumeries
Co-Development & Prog : Marc-Olivier Méhu
Technical & hardware support : Manuel Goepfert

Contact : metmap@orbifly.com




SOURCES & CREDITS :

   NOAA